Location: Bavegemberg
(50.9500°N, 3.8833°E)
Time: 13:16:28
(UTC+00:00)

MSX - Pass Details

Date: 23 May 2024
Orbit: 893 x 906 km, 99.0° (Epoch: 16 June)

Event Time Altitude Azimuth Distance (km) Brightness Sun altitude
Rises 02:02:33 0° 14° (NNE) 3,527 8.4 -12.0°
Reaches altitude 10° 02:04:58 10° 13° (NNE) 2,581 7.5 -11.7°
Maximum altitude 02:10:42 78° 289° (WNW) 921 3.9 -11.2°
Enters shadow 02:15:50 13° 204° (SSW) 2,336 5.4 -10.8°
